Content
SEND FEEDBACK

Daily
Averages
Monthly
Summary
United States of America

LAKE GEORGE, NEW YORK


Home > North America > United States > New York
Elevation: 321 feet     Latitude: 43 21N     Longitude: 073 37W

WEATHER
 
SELECT A DAY
Number of Records: 212,989;   Date Range: 1/1/95 - 7/27/14
 
SHARE

PRINT THIS DATA

[ ← Previous Day ]
WEATHER ALMANAC - OCTOBER 15, 2013
[ Next Day → ]
[ °C ]   °F
Weather ElementAverageHighLow
Temperature56.4 °F64 °F (3:53 pm)50 °F (8:09 pm)
Dewpoint53.1 °F55.4 °F (3:43 am)48.2 °F (8:09 pm)
Humidity89.2 %100 % (10:30 pm)70 % (1:53 pm)
Barometer30.20 in30.27 in (12:53 am)30.12 in (10:30 pm)
Wind Speed0.7 mph3.5 mph (2:53 am)
Weather ElementAverage
Visibility7.8 mi
Wind DirectionNNE (10 °)

Weather ElementTotal
Precipitation---
Heating Degree Days8 (Base 65)
Growing Degree Days7 (Base 50)
Averaged from 32 records on October 15, 2013
WEATHER CONDITIONS BREAKOUT
WIND DIRECTION BREAKOUT
WEATHER BY HOUR - OCTOBER 15, 2013
[ °C ]   °F
Local TimeTemperatureDewpointHumidityBarometerVisibilityWind DirectionWind SpeedGust SpeedPrecipitationEventsConditions
12:53 AM59.0 °F55.0 °F87 %30.27 in10.0 miCalmOvercast
1:53 AM57.0 °F54.0 °F89 %30.27 in10.0 miCalm0.00 inOvercast
2:53 AM57.0 °F54.0 °F89 %30.25 in10.0 miENE (60°)3.5 mphOvercast
3:43 AM57.2 °F55.4 °F94 %30.25 in9.0 miCalmOvercast
3:53 AM57.0 °F55.0 °F93 %30.26 in9.0 miCalmOvercast
4:53 AM55.9 °F55.0 °F97 %30.26 in8.0 miCalmOvercast
5:53 AM57.0 °F55.0 °F93 %30.25 in7.0 miCalmOvercast
6:35 AM57.2 °F55.4 °F94 %30.25 in7.0 miCalmOvercast
6:53 AM55.9 °F55.0 °F97 %30.26 in7.0 miCalmOvercast
7:53 AM57.0 °F55.0 °F93 %30.26 in5.0 miCalmOvercast
8:35 AM57.2 °F55.4 °F94 %30.25 in6.0 miCalmOvercast
8:53 AM57.0 °F55.0 °F93 %30.26 in6.0 miCalmOvercast
9:53 AM59.0 °F55.0 °F87 %30.26 in10.0 miCalmOvercast
10:53 AM59.0 °F54.0 °F83 %30.26 in10.0 miNNE (20°)3.5 mphOvercast
11:53 AM60.1 °F55.0 °F83 %30.24 in10.0 miENE (70°)3.5 mphOvercast
12:53 PM61.0 °F53.1 °F75 %30.22 in10.0 miNNE (20°)3.5 mphOvercast
1:53 PM63.0 °F53.1 °F70 %30.21 in10.0 miCalmOvercast
2:53 PM63.0 °F54.0 °F72 %30.18 in10.0 miCalmOvercast
3:53 PM64.0 °F54.0 °F70 %30.17 in10.0 miCalmOvercast
4:53 PM63.0 °F54.0 °F72 %30.15 in10.0 miENE (70°)3.5 mphOvercast
5:53 PM62.1 °F54.0 °F75 %30.15 in10.0 miEast (80°)3.5 mphPartly Cloudy
6:53 PM55.9 °F53.1 °F90 %30.15 in10.0 miCalmClear
7:53 PM51.1 °F48.9 °F92 %30.14 in3.0 miCalmClear
7:55 PM51.8 °F50.0 °F94 %30.13 in1.8 miCalmClear
8:09 PM50.0 °F48.2 °F94 %30.13 in10.0 miCalmClear
8:53 PM51.1 °F50.0 °F96 %30.14 in9.0 miCalmOvercast
9:53 PM53.1 °F52.0 °F96 %30.14 in9.0 miCalmMostly Cloudy
10:30 PM50.0 °F50.0 °F100 %30.12 in1.8 miCalmMostly Cloudy
10:48 PM50.0 °F50.0 °F100 %30.12 in0.5 miCalmFogFog
10:53 PM50.0 °F50.0 °F100 %30.13 in1.5 miCalmMostly Cloudy
11:00 PM51.8 °F50.0 °F94 %30.12 in9.0 miCalmMostly Cloudy
11:53 PM52.0 °F51.1 °F97 %30.12 in9.0 miCalmMostly Cloudy
Hourly data recorded from KGFL, located miles away from Lake George, New York







STORIES FROM OUR PARTNERS